Location: Wien
(48.2082°N, 16.3738°E)
Time: 01:10:46
(UTC+02:00)

STARS - Pass Details

Date: 28 April 2024
Orbit: 605 x 620 km, 98.1° (Epoch: 19 May)

Event Time Altitude Azimuth Distance (km) Brightness Sun altitude
Rises 00:24:35 0° 22° (NNE) 2,896 ? -27.3°
Reaches altitude 10° 00:26:58 10° 32° (NNE) 1,982 ? -27.3°
Enters shadow 00:29:34 27° 62° (ENE) 1,183 ? -27.4°
